Location: Borgo
(42.3939°N, 9.2791°E)
Time: 18:36:12
(UTC+00:00)

Cosmos 2344 - Visible Passes

Search period start: 07 May 2021 00:00
Search period end: 17 May 2021 00:00
Orbit: 1241 x 3001 km, 63.3° (Epoch: 06 May)

Date Brightness Start Highest point End Pass type
(mag) Time Alt. Az. Time Alt. Az. Time Alt. Az.
07 May 4.5 00:23:33 10° NW 00:33:04 78° NE 00:46:27 10° SE visible
07 May 5.1 02:38:46 10° NW 02:47:33 31° WSW 02:58:52 10° SSW visible
07 May 6.0 19:42:31 10° NW 19:47:47 19° N 19:53:42 10° NE visible
07 May 5.7 21:59:11 10° NNW 22:06:27 28° NNE 22:15:34 10° E visible
08 May 4.5 00:13:13 10° NW 00:22:44 78° NE 00:36:07 10° SE visible
08 May 5.1 02:28:26 10° NW 02:37:13 31° WSW 02:48:31 10° SSW visible
08 May 6.0 19:32:12 10° NW 19:37:27 19° N 19:43:22 10° NE visible
08 May 5.6 21:48:52 10° NNW 21:56:07 28° NNE 22:05:15 10° E visible
09 May 4.5 00:02:53 10° NW 00:12:24 78° NE 00:25:47 10° SE visible
09 May 5.1 02:18:07 10° NW 02:26:53 31° WSW 02:38:11 10° SSW visible
09 May 6.0 19:21:53 10° NW 19:27:07 19° N 19:33:02 10° NE visible
09 May 5.6 21:38:32 10° NNW 21:45:47 28° NNE 21:54:56 10° E visible
09 May 4.4 23:52:33 10° NW 00:02:04 78° NE 00:15:27 10° SE visible
10 May 5.2 02:07:47 10° NW 02:16:33 31° WSW 02:27:50 10° SSW visible
10 May 6.0 19:11:33 10° NW 19:16:48 19° N 19:22:43 10° NE visible
10 May 5.6 21:28:12 10° NNW 21:35:28 28° NNE 21:44:36 10° E visible
10 May 4.4 23:42:13 10° NW 23:51:44 78° NE 00:03:20 15° SE visible
11 May 5.2 01:57:28 10° NW 02:06:13 31° WSW 02:13:04 20° SSW visible
11 May 6.0 19:01:14 10° NW 19:06:29 19° N 19:12:24 10° NE visible
11 May 5.6 21:17:52 10° NNW 21:25:08 28° NNE 21:34:17 10° E visible
11 May 4.4 23:31:53 10° NW 23:41:24 78° NE 23:51:07 21° SE visible
12 May 5.2 01:47:08 10° NW 01:55:53 31° WSW 02:00:58 24° SW visible
12 May 5.6 21:07:32 10° NNW 21:14:49 28° NNE 21:23:58 10° E visible
12 May 4.4 23:21:33 10° NW 23:31:04 78° NE 23:39:42 25° SE visible
13 May 5.2 01:36:48 10° NW 01:45:32 31° WSW 01:49:35 26° SW visible
13 May 5.6 20:57:12 10° NNW 21:04:29 28° NNE 21:13:39 10° E visible
13 May 4.4 23:11:14 10° NW 23:20:44 79° NE 23:28:39 28° SE visible
14 May 5.2 01:26:29 10° NW 01:35:12 31° WSW 01:38:34 27° SW visible
14 May 5.5 20:46:52 10° NNW 20:54:09 28° NNE 21:03:20 10° E visible
14 May 4.4 23:00:54 10° NW 23:10:24 79° NE 23:17:49 30° SE visible
15 May 5.2 01:16:09 10° NW 01:24:53 31° WSW 01:27:46 28° SW visible
15 May 5.5 20:36:32 10° NNW 20:43:50 28° NNE 20:53:00 10° E visible
15 May 4.4 22:50:33 10° NW 23:00:04 79° NE 23:07:10 32° SE visible
16 May 5.2 01:05:49 10° NW 01:14:33 31° WSW 01:17:07 29° SW visible
16 May 5.5 20:26:12 10° NNW 20:33:30 28° NNE 20:42:41 10° E visible
16 May 4.4 22:40:13 10° NW 22:49:44 79° NE 22:56:38 33° SE visible
